Location: Acequia del Cap
(41.7000°N, 0.6167°E)
Time: 16:50:56
(UTC+00:00)

Cosmos 1300 - Pass Details

Date: 07 August 2020
Orbit: 511 x 514 km, 82.5° (Epoch: 22 September)

Event Time Altitude Azimuth Distance (km) Brightness Sun altitude
Rises 04:17:55 0° 181° (S) 2,615 6.0 -7.6°
Reaches altitude 10° 04:20:02 10° 178° (S) 1,734 5.1 -7.2°
Maximum altitude 04:23:49 68° 96° (E) 557 3.1 -6.6°
Drops below altitude 10° 04:27:38 10° 13° (NNE) 1,749 6.0 -6.0°
Sets 04:29:46 0° 11° (N) 2,641 6.9 -5.6°
